Kansas Department of Transportation
RWIS(Road and Runway Information System) Map and Weather Data





Station
Surface
Air
Wind
Site IDSensor TypeLocationTemperature (°F)Temperature (°F)Humidity (%)Speed (mi/h)Gusts (mi/h)DirectionTime
123002AtmosphericBonner Springs 41511115NNWNov 29 2020 4:25PM
123002ApproachBonner Springs46     Nov 29 2020 4:25PM
123002DeckBonner Springs45     Nov 29 2020 4:25PM
123014AtmosphericBull Creek 41571118NNENov 29 2020 4:25PM
123014DeckBull Creek45     Nov 29 2020 4:25PM
123014DepartureBull Creek46     Nov 29 2020 4:25PM
123015AtmosphericLeavenworth 3950817NNENov 29 2020 4:25PM
123015DeckLeavenworth41     Nov 29 2020 4:25PM
123015DepartureLeavenworth43     Nov 29 2020 4:25PM
123020AtmosphericMayetta 37441321NNWNov 29 2020 4:25PM
123020RoadwayMayettaUnavailable     Nov 29 2020 4:25PM
123020DeckMayettaUnavailable     Nov 29 2020 4:25PM
505000AtmosphericKTA 1 45900NNov 29 2020 4:20PM
505000ApproachKTA 150     Nov 29 2020 4:20PM
505000DeckKTA 150     Nov 29 2020 4:20PM
505001AtmosphericKTA 2 43461318NNWNov 29 2020 4:20PM
505001ApproachKTA 246     Nov 29 2020 4:20PM
505001DeckKTA 250     Nov 29 2020 4:20PM
505002AtmosphericKTA 3 41581019NNENov 29 2020 4:20PM
505002ApproachKTA 350     Nov 29 2020 4:20PM
505002DeckKTA 348     Nov 29 2020 4:20PM
505003AtmosphericKTA 4 41451121NNov 29 2020 4:20PM
505003ApproachKTA 4Unavailable     Nov 29 2020 4:20PM
505003DeckKTA 4Unavailable     Nov 29 2020 4:20PM
505004AtmosphericKTA 5 39991519WSWNov 29 2020 4:20PM
505004RoadwayKTA 548     Nov 29 2020 4:20PM
505004RoadwayKTA 548     Nov 29 2020 4:20PM
505005AtmosphericKTA 6 41451219NNWNov 29 2020 4:20PM
505005Approach KTA 646     Nov 29 2020 4:20PM
505005DeckKTA 643     Nov 29 2020 4:20PM
505006AtmosphericKTA 7 4150916NNWNov 29 2020 4:20PM
505006ApproachKTA 748     Nov 29 2020 4:20PM
505006DeckKTA 745     Nov 29 2020 4:20PM
505007AtmosphericKTA 8 39541119NNov 29 2020 4:20PM
505007ApproachKTA 846     Nov 29 2020 4:20PM
505007DeckKTA 845     Nov 29 2020 4:20PM
505008AtmosphericKTA 9 41451018SSWNov 29 2020 4:20PM
505008ApproachKTA 945     Nov 29 2020 4:20PM
505008DeckKTA 943     Nov 29 2020 4:20PM
505009AtmosphericKTA 10 5459715NNov 29 2020 4:20PM
505009ApproachKTA 1045     Nov 29 2020 4:20PM
505009DeckKTA 1043     Nov 29 2020 4:20PM
505010AtmosphericWebb 41431420WNWNov 29 2020 4:25PM
505010DeckWebb46     Nov 29 2020 4:25PM
505010NullWebb46     Nov 29 2020 4:25PM
505014AtmosphericI-135 43471525NNENov 29 2020 4:20PM
505014ApproachI-13546     Nov 29 2020 4:30PM
505014DeckI-13548     Nov 29 2020 4:30PM
540000AtmosphericBlue Rapids 414429WNWNov 29 2020 4:25PM
540000DeckBlue Rapids45     Nov 29 2020 4:25PM
540000DepartureBlue RapidsUnavailable     Nov 29 2020 4:25PM
540001AtmosphericSabetha 3752716NNov 29 2020 4:25PM
540001ApproachSabethaUnavailable     Nov 29 2020 4:25PM
540001DeckSabethaUnavailable     Nov 29 2020 4:25PM
540002AtmosphericWestgate 41411221NWNov 29 2020 4:25PM
540002DeckWestgate45     Nov 29 2020 4:25PM
540002DepartureWestgateUnavailable     Nov 29 2020 4:25PM
540003AtmosphericEmporia 4350511NNov 29 2020 4:25PM
540003ApproachEmporia48     Nov 29 2020 4:25PM
540003DeckEmporia46     Nov 29 2020 4:25PM
540007AtmosphericManhattan 39451115NNWNov 29 2020 4:25PM
540007DepartureManhattan41     Nov 29 2020 4:25PM
540007DeckManhattan46     Nov 29 2020 4:25PM
541000AtmosphericElkhart 45301117NNWNov 29 2020 4:25PM
541000ApproachElkhart55     Nov 29 2020 4:25PM
541000DeckElkhart50     Nov 29 2020 4:25PM
541003AtmosphericFord 43231116NNov 29 2020 4:25PM
541003DeckFordUnavailable     Nov 29 2020 4:25PM
541003DepartureFord48     Nov 29 2020 4:25PM
541004AtmosphericScott 54261419NENov 29 2020 4:25PM
541004DepartureScott48     Nov 29 2020 4:25PM
541005AtmosphericNess 43321419NNov 29 2020 4:25PM
541005DeckNess48     Nov 29 2020 4:25PM
541005DepartureNess50     Nov 29 2020 4:25PM
541007AtmosphericGarden City 432017 NNov 29 2020 4:25PM
541007ApproachGarden City      Nov 29 2020 4:25PM
541007DeckGarden City48     Nov 29 2020 4:25PM
543000AtmosphericJunction City 4141511NNENov 29 2020 4:25PM
543000ApproachJunction City48     Nov 29 2020 4:25PM
543000DeckJunction City46     Nov 29 2020 4:25PM
543001AtmosphericEllsworth 39451421NNWNov 29 2020 4:25PM
543001RoadwayEllsworth45     Nov 29 2020 4:25PM
543002AtmosphericMcPherson 39471522NNov 29 2020 4:25PM
543002ApproachMcPherson45     Nov 29 2020 4:25PM
543002DeckMcPherson45     Nov 29 2020 4:25PM
543003AtmosphericSalina 41321219SWNov 29 2020 4:25PM
543003DepartureSalina46     Nov 29 2020 4:25PM
543003RoadwaySalina43     Nov 29 2020 4:25PM
543004AtmosphericConcordia 37441422NNWNov 29 2020 4:25PM
543004ApproachConcordia43     Nov 29 2020 4:25PM
543004DeckConcordiaUnavailable     Nov 29 2020 4:25PM
560000AtmosphericEdson 39251216NNWNov 29 2020 4:25PM
560000RoadwayEdson45     Nov 29 2020 4:25PM
560000RoadwayEdson45     Nov 29 2020 4:25PM
560001AtmosphericOakley 39201417NNWNov 29 2020 4:25PM
560001ApproachOakley45     Nov 29 2020 4:25PM
560001DeckOakley45     Nov 29 2020 4:25PM
560003AtmosphericJennings 3924712NNENov 29 2020 4:25PM
560003ApproachJennings48     Nov 29 2020 4:25PM
560003DeckJennings46     Nov 29 2020 4:25PM
560003DeckJennings46     Nov 29 2020 4:25PM
560004AtmosphericWakeeney 3927815NNov 29 2020 4:25PM
560004ApproachWakeeneyUnavailable     Nov 29 2020 4:25PM
560004DeckWakeeney46     Nov 29 2020 4:25PM
560005AtmosphericWalker 3928917NNWNov 29 2020 4:25PM
560005ApproachWalker46     Nov 29 2020 4:25PM
560005DeckWalker45     Nov 29 2020 4:25PM
560006AtmosphericBow Creek(Stockton) 39231518NNov 29 2020 4:25PM
560006ApproachBow Creek(Stockton)46     Nov 29 2020 4:25PM
560006DeckBow Creek(Stockton)113     Nov 29 2020 4:25PM
560007AtmosphericLebanon 3436914NWNov 29 2020 4:25PM
560007ApproachLebanonUnavailable     Nov 29 2020 4:25PM
560007DeckLebanon43     Nov 29 2020 4:25PM
560008AtmosphericWallace 4129716NNWNov 29 2020 4:25PM
560008ApproachWallaceUnavailable     Nov 29 2020 4:25PM
560008DeckWallace48     Nov 29 2020 4:25PM
572000AtmosphericGreat Bend 4139918NNENov 29 2020 4:25PM
572000ApproachGreat BendUnavailable     Nov 29 2020 4:25PM
572000DeckGreat Bend45     Nov 29 2020 4:25PM
572001AtmosphericPratt 4111513NNENov 29 2020 4:25PM
572001ApproachPratt43     Nov 29 2020 4:25PM
572001DeckPratt45     Nov 29 2020 4:25PM
572002AtmosphericAnthony 454836SNov 29 2020 4:25PM
572002ApproachAnthony118     Nov 29 2020 4:25PM
572002DeckAnthony113     Nov 29 2020 4:25PM
573000AtmosphericEureka 43491119NNWNov 29 2020 4:25PM
573000DeckEureka50     Nov 29 2020 4:25PM
573000DepartureEureka46     Nov 29 2020 4:25PM
573001AtmosphericGarnett 41541116NNov 29 2020 4:25PM
573001ApproachGarnettUnavailable     Nov 29 2020 4:25PM
573001DeckGarnettUnavailable     Nov 29 2020 4:25PM
573003AtmosphericChetopa 4552614NWNov 29 2020 4:25PM
573003DeckChetopa48     Nov 29 2020 4:25PM
573003DeckChetopa48     Nov 29 2020 4:25PM
573003DepartureChetopaUnavailable     Nov 29 2020 4:25PM
573004AtmosphericChanute 4352714NNWNov 29 2020 4:25PM
573004ApproachChanute50     Nov 29 2020 4:25PM
573004DeckChanute46     Nov 29 2020 4:25PM